DELTA 1 DEB

Satellite information

Favourite Embed

Satellite Type and Status

DEBRISIN ORBIT

Key statistics

Satellite DELTA 1 DEB at a glance.

Uptime

18451

Days in orbit

Revolutions

≈ 14.4

Per day

Orbit

SSO

Sun Synchronous Orbit

Inclination

100.0

Latest

Satellite identification and parameters

Extended collection of information and parameters for DELTA 1 DEB.

Object identification

Identified? True

Debris? True

Object name: DELTA 1 DEB

International designator: 1975-052FV

Object number (NORAD): 21500

Object ID (CCSDS): 21500

Country: UNITED STATES OF AMERICA (US)

Current information (Y/N): Y

RCS size: SMALL

Orbital parameters

Period: 100.028 minutes

Inclination: 100.0331 deg

SMA: 7137.965 km

Apoapsis: 875.197 km

Periapsis: 644.463 km

RAAN: 143.2863 deg

Eccentricy: 0.01616245

Argument of periapsis: 242.7918 deg

Mean anomaly: 145.3112 deg

Mean motion: 14.39597638 rev/day

Mean motion (dot): 0.00004323 rev/day2

B* drag term: 0.0012044671 1/REarth

Two-line elements (TLE)

Creation date: Dec. 15, 2025, 8:47 p.m.

Reference frame: TEME

Reference center: EARTH

Epoch: Dec. 15, 2025, 9:19 a.m. UTC

TLE line 0: 0 DELTA 1 DEB

TLE line 1: 1 21500U 75052FV 25349.38858134 .00004323 00000-0 12045-2 0 9996

TLE line 2: 2 21500 100.0331 143.2863 0161625 242.7918 145.3112 14.39597638786541

Live tracking on map

Real-time ground track for satellite DELTA 1 DEB.

In-orbit conjunctions

A list of the most updated potential collisions computed for object DELTA 1 DEB.

Target Orbit TCA Probability of collision Miss distance Type
CZ-6A DEB LEO 2025-02-06 02:51:14 0.0001916381 278.0 (m) DEBRIS

Associated space launch

Experimental meteorological satellite

DELTA 1 DEB was lifted into orbit during the mission ‘Delta 2910 | Nimbus 6’, on board a Delta 2910 space rocket.

The launch took place on June 12, 1975, 8:12 a.m. from Space Launch Complex 2W.

For more information about the launch, click the button.

Launch to space Delta 2910 | Nimbus 6
Delta 2910 | Nimbus 6

Agency: N/A

Status: Launch Successful

Launch date: June 12, 1975, 8:12 a.m. UTC

Rocket: Delta 2910

Launch pad: Space Launch Complex 2W

Location: Vandenberg SFB, CA, USA

...

Latest news about this satellite

There are no fresh news available about this satellite. Check back as we update our databases every day.


Newsletter sign-up

Weekly statistics, charts and insights to help you stay on top of the space industry.